Home   Weather   Babylon   Past weeks
Flag for USA

Past Weather in Babylon, New York, USA — Yesterday and Last 2 Weeks

Now
56 °F

Sunny.


Feels Like: 53 °F
Forecast: 57 / 42 °F
Wind: 12 mph from Southwest

Location: Republic Airport

Current Time: Oct 19, 2019 at 4:09:55 pm

Latest Report: Oct 19, 2019 at 2:53 pm


Visibility: 10 mi

Pressure: 30.04 "Hg

Humidity: 53%

Dew Point: 39 °F

Location of BabylonLocation

Past Weather in Babylon — Graph

°F

Babylon Temperature Yesterday

Maximum temperature yesterday: 59 °F (at 12:53 pm)
Minimum temperature yesterday: 46 °F (at 11:53 pm)
Average temperature yesterday: 53 °F

High & Low Weather Summary for the Past Weeks

 TemperatureHumidityPressure
High76 °F (Oct 7, 2:53 pm)93% (Oct 14, 3:53 am)30.46 "Hg (Oct 14, 3:53 am)
Low39 °F (Oct 19, 6:53 am)37% (Oct 15, 1:53 pm)29.08 "Hg (Oct 16, 11:02 pm)
Average58 °F70%30.03 "Hg
* Reported Oct 4 2:53 pm — Oct 19 2:53 pm, Babylon. Weather by CustomWeather, © 2019

Note: Actual official high and low records may vary slightly from our data, if they occured in-between our weather recording intervals... More about our weather records

Advertising

Babylon Weather History for the Previous 24 Hours

Scroll right to see more
 ConditionsComfort  
Time TempWeatherWind HumidityBarometerVisibility
2:53 pm
Sat, Oct 19
56 °FSunny.12 mph53%30.04 "Hg10 mi
1:53 pm57 °FSunny.9 mph51%30.05 "Hg10 mi
12:53 pm56 °FSunny.5 mph49%30.06 "Hg10 mi
11:53 am55 °FSunny.No wind53%30.08 "Hg10 mi
10:53 am53 °FSunny.6 mph55%30.09 "Hg10 mi
9:53 am51 °FSunny.7 mph59%30.09 "Hg10 mi
8:53 am47 °FSunny.6 mph71%30.09 "Hg10 mi
7:53 am42 °FSunny.3 mph82%30.08 "Hg10 mi
6:53 am39 °FClear.No wind86%30.06 "Hg10 mi
5:53 am40 °FClear.3 mph83%30.03 "Hg10 mi
4:53 am42 °FClear.No wind79%30.03 "Hg10 mi
3:53 am41 °FClear.3 mph82%30.03 "Hg10 mi
2:53 am43 °FClear.No wind76%30.03 "Hg10 mi
1:53 am44 °FPassing clouds.No wind76%30.03 "Hg10 mi
12:53 am45 °FClear.3 mph74%30.01 "Hg10 mi
11:53 pm
Fri, Oct 18
46 °FPassing clouds.6 mph71%30.02 "Hg10 mi
10:53 pm47 °FClear.3 mph69%30.00 "Hg10 mi
9:53 pm49 °FClear.5 mph64%30.00 "Hg10 mi
8:53 pm51 °FOvercast.9 mph59%29.98 "Hg10 mi
7:53 pm52 °FOvercast.9 mph59%29.96 "Hg10 mi
6:53 pm51 °FClear.8 mph61%29.91 "Hg10 mi
5:53 pm54 °FSunny.9 mph57%29.89 "Hg10 mi
4:53 pm57 °FScattered clouds.12 mph51%29.87 "Hg10 mi
Weather by CustomWeather, © 2019

See weather overview